Wind_Speed
34 34 41 48 53 56 54 53 48 27 18 29 30 28 34 31 26 33 35 30 29 31 33 35 34 33 32 31 26 21 21 19 17 16 16 16 16 16 16 17 18 17 17 16 15 16 16 19 20 19 20 20 20 20 18 16 15 15 15 15 14 13 12 12 13 14 14 14 13 12 12 13 15 13 12 12 12 11 11 10 9 8 7 6 6 5
33 37 47 53 50 51 51 50 48 32 18 24 26 21 28 33 28 29 33 30 26 26 30 32 33 32 32 30 26 23 22 19 17 17 17 18 18 18 18 19 19 19 18 17 16 17 18 20 21 21 22 21 20 20 18 15 15 15 15 15 14 13 13 13 15 15 15 15 14 13 13 14 15 14 13 13 12 12 11 11 9 8 7 6 5 5
36 44 49 47 44 45 46 48 48 39 25 21 22 21 23 28 28 26 27 28 26 25 28 30 32 33 31 29 27 26 24 20 19 20 19 20 21 21 20 19 20 20 19 18 18 18 18 20 22 23 23 22 22 21 19 17 17 16 15 15 15 15 15 15 16 17 16 17 17 16 15 15 15 15 15 14 13 13 12 10 8 7 7 6 5 5
39 43 44 41 40 42 43 44 46 43 34 25 21 23 23 22 25 26 23 24 26 26 26 25 28 33 32 31 30 28 26 23 22 22 22 22 22 21 20 19 18 19 17 17 18 18 19 23 23 23 22 22 23 22 21 19 17 16 15 15 15 16 17 17 17 18 18 18 18 17 16 16 16 15 15 14 14 14 12 10 8 8 8 7 6 5
37 25 30 39 38 39 41 40 42 44 42 35 26 22 21 20 21 23 19 21 27 27 28 25 21 25 31 33 33 30 27 26 24 24 25 25 24 22 20 20 18 18 17 16 17 18 21 24 23 22 21 22 23 23 21 19 17 15 15 16 16 17 17 18 18 18 18 19 18 17 17 16 16 16 16 15 14 13 12 10 9 8 8 7 6 6
38 14 15 35 38 38 39 38 41 44 43 41 35 26 21 18 18 20 19 19 24 23 28 28 14 12 25 30 31 32 29 28 27 27 28 26 26 25 23 22 21 19 18 16 16 19 23 24 23 21 21 22 23 23 21 18 16 16 16 17 17 17 18 18 18 18 18 19 18 17 16 14 13 14 15 15 13 11 11 9 9 9 9 8 7 7
42 23 9 22 35 38 39 39 42 44 41 38 39 32 22 18 16 19 19 17 20 20 23 26 14 8 19 27 30 33 31 31 31 30 30 29 28 28 26 24 22 20 19 19 20 22 24 24 23 22 22 23 22 21 19 18 17 17 17 18 18 18 18 18 18 19 19 19 19 17 16 14 13 14 15 15 13 11 10 10 10 10 9 8 8 8
42 34 15 14 28 37 41 44 43 44 39 34 37 34 24 20 17 17 15 13 15 15 16 22 20 13 18 28 31 33 33 33 34 33 31 32 31 30 28 25 23 21 20 22 23 24 25 25 24 23 23 22 20 19 18 18 19 18 18 18 18 18 19 19 19 19 20 20 19 17 16 16 16 16 16 15 14 12 11 10 10 10 8 8 8 9
36 38 27 16 22 33 43 47 42 41 37 27 29 32 27 21 18 16 15 11 10 8 13 24 24 12 13 27 31 31 36 36 36 36 34 36 35 32 30 25 23 22 21 22 22 23 25 26 25 25 23 20 17 17 18 19 19 19 20 19 19 19 19 20 20 20 21 21 20 18 17 17 17 16 16 15 15 14 12 11 11 9 8 8 8 9
22 34 33 20 21 31 38 42 39 38 35 23 19 27 28 19 15 15 14 14 11 7 13 25 28 14 8 24 31 29 36 39 38 38 37 38 37 34 31 26 24 23 23 23 22 23 26 26 26 25 23 19 17 18 20 20 21 21 21 20 19 20 20 21 20 20 22 22 21 19 18 17 16 16 15 15 17 16 13 12 11 10 9 9 9 10
17 24 32 28 25 26 26 31 36 35 33 26 21 25 25 17 13 11 11 13 9 9 19 26 30 22 9 20 36 34 34 37 38 39 39 39 38 35 32 28 26 24 24 25 25 26 27 26 26 25 23 20 18 20 21 22 23 23 22 21 20 20 20 20 20 20 22 22 20 19 18 17 16 16 16 17 19 17 13 12 12 12 11 11 12 12
21 19 30 36 29 22 17 23 32 32 31 29 27 27 21 13 13 10 8 8 4 8 24 27 28 27 15 20 34 36 34 35 36 38 38 38 37 37 35 30 27 25 26 27 28 29 29 27 27 27 23 21 20 21 22 23 23 23 23 22 21 20 20 19 19 19 21 20 19 18 17 16 16 17 18 18 19 17 14 13 14 14 14 14 15 15
27 25 28 28 26 24 18 20 28 30 30 31 30 30 18 7 8 7 3 5 6 9 14 17 21 24 23 28 32 32 33 35 36 35 34 35 33 33 34 31 28 27 27 28 29 31 30 28 29 28 24 22 21 22 23 23 22 23 22 21 20 19 19 18 18 19 20 20 18 17 16 16 17 18 19 19 18 17 16 15 16 16 17 18 18 17
25 25 23 21 23 28 25 24 31 34 35 36 36 34 21 7 5 6 4 3 9 10 7 12 16 16 20 27 29 31 33 34 35 33 32 33 31 28 29 29 29 29 28 28 30 31 31 30 29 28 25 22 21 22 23 22 21 22 21 19 18 19 19 18 18 18 19 19 18 16 16 16 17 18 18 18 18 18 17 17 17 18 18 19 19 19
20 19 25 28 27 31 32 29 31 36 36 36 38 35 26 15 7 5 6 3 3 4 6 13 12 8 12 17 22 29 32 33 34 33 33 33 32 30 29 29 29 29 28 28 30 31 31 32 30 28 25 23 22 22 23 22 21 21 19 18 18 19 19 18 18 18 18 18 18 16 16 16 17 17 17 17 17 17 18 18 18 18 18 18 18 19
22 20 25 30 28 29 32 30 27 29 32 33 35 33 31 28 16 6 6 6 5 2 4 13 10 8 16 20 24 27 28 32 35 36 35 32 33 34 31 29 28 28 28 28 30 32 32 32 30 28 25 24 23 23 23 22 20 19 18 18 19 18 18 18 18 18 18 17 17 16 16 15 15 16 15 15 15 17 18 19 18 18 18 18 19 19
22 21 22 23 25 28 28 29 28 27 29 32 35 37 40 36 20 7 5 5 6 3 4 13 11 10 17 21 27 27 25 31 35 36 35 31 33 34 31 29 28 27 28 29 30 31 32 32 30 28 26 24 23 23 22 21 18 18 18 19 20 19 18 18 19 19 18 17 17 16 15 14 14 14 14 15 16 17 18 18 18 17 17 19 19 20
17 15 19 21 24 28 25 24 27 28 27 30 35 38 36 29 20 14 8 1 3 1 5 14 15 16 16 17 26 28 26 30 33 33 34 32 33 33 30 29 28 28 30 31 31 31 32 32 30 29 26 24 23 22 21 20 18 18 19 19 20 19 18 19 19 19 19 18 17 15 14 14 14 14 14 14 15 16 17 17 16 16 18 19 19 19
15 10 15 21 21 25 24 21 26 30 30 29 31 32 27 21 21 21 11 2 3 1 2 9 12 17 22 21 27 31 30 31 31 32 33 32 32 33 31 30 28 30 32 32 32 32 31 31 30 29 27 24 24 22 21 21 19 19 20 20 21 20 20 20 20 19 19 18 16 15 14 14 13 13 13 14 15 16 16 16 15 16 17 18 17 16
18 8 8 18 23 24 24 26 30 34 36 31 24 27 29 22 21 24 16 6 4 2 2 4 3 10 23 25 26 30 31 31 31 31 32 31 32 33 31 29 29 30 31 31 31 31 31 30 30 29 27 24 23 23 23 22 20 21 21 21 21 21 21 21 20 20 19 17 16 14 14 13 12 11 12 13 13 14 14 15 15 15 15 15 15 15
17 8 4 14 25 25 27 34 37 37 41 38 28 28 35 31 24 24 21 17 10 2 3 4 1 8 22 24 23 27 30 32 31 28 28 30 32 32 29 28 28 30 31 31 30 30 30 30 30 30 28 24 24 24 24 23 22 22 22 21 21 21 21 21 20 19 18 17 16 15 14 12 11 11 11 11 12 13 13 14 14 14 13 13 14 15
18 10 6 9 23 31 34 36 37 37 39 40 35 30 33 35 26 15 13 20 20 9 3 5 2 11 23 24 22 25 27 28 28 25 26 28 29 28 27 27 28 30 31 30 28 28 30 31 31 32 29 25 24 25 25 24 23 23 22 21 21 21 21 20 20 19 18 17 16 15 13 12 11 10 10 11 12 13 14 14 14 13 13 14 15 15
18 11 10 9 17 31 35 31 31 34 34 36 37 31 27 32 32 19 8 14 20 14 8 5 3 12 24 25 23 25 25 25 25 24 25 26 25 24 25 26 28 30 30 29 27 27 29 31 31 31 30 26 25 25 25 24 24 24 22 22 22 22 22 21 20 19 18 17 16 14 13 12 12 12 12 13 14 14 14 14 14 14 14 14 15 15
18 15 14 11 7 17 28 30 29 31 31 32 35 34 27 27 32 29 16 14 20 18 11 4 1 10 23 25 21 22 25 26 25 26 25 24 23 23 24 27 29 30 31 29 28 28 29 30 30 30 31 28 26 26 25 24 24 24 23 23 23 23 22 21 20 19 18 17 16 15 14 14 14 15 15 15 15 15 15 15 15 14 14 15 14 13
19 15 14 8 4 6 16 20 23 28 33 34 35 36 30 23 26 31 27 19 17 21 20 11 4 10 21 24 22 23 25 28 28 28 26 24 24 22 24 27 29 31 31 30 31 31 30 30 29 29 31 29 27 26 26 24 25 25 24 24 23 22 22 21 20 19 19 18 16 15 15 15 15 16 15 15 16 17 16 15 14 14 14 15 13 12
19 16 13 8 3 7 10 13 21 30 35 37 37 37 33 25 21 27 31 24 14 15 20 15 10 15 22 25 27 27 27 28 28 28 26 24 24 22 22 26 30 31 31 30 31 31 31 29 27 28 29 29 27 27 26 25 25 25 25 24 23 21 21 21 21 21 19 18 16 16 15 15 14 14 15 16 17 18 17 15 14 14 14 14 12 11
14 16 16 14 12 16 22 21 27 33 35 37 39 37 34 31 25 23 27 27 21 16 16 16 15 18 24 28 29 29 28 27 26 27 26 24 24 23 23 25 27 28 27 28 29 29 29 28 26 27 28 27 26 27 26 26 26 26 25 24 24 22 21 21 21 21 20 18 17 16 14 13 13 14 15 16 17 18 16 14 14 14 14 12 11 10
11 15 17 15 12 19 29 24 22 30 34 35 35 32 30 29 27 24 21 22 24 20 15 17 18 17 21 26 26 27 29 28 26 26 26 25 24 25 25 27 27 26 25 26 27 27 27 26 25 26 26 25 25 27 27 27 28 28 26 25 25 24 22 22 21 21 20 19 17 15 13 12 13 15 15 16 17 17 15 14 14 14 13 12 11 10
11 12 14 11 6 13 29 26 20 22 27 31 30 28 27 25 23 24 21 16 20 20 15 16 18 17 19 20 21 26 29 29 28 26 25 24 24 24 24 26 26 26 26 25 24 24 23 23 24 25 25 25 25 27 28 29 30 31 30 28 27 26 23 22 22 21 20 19 17 15 13 13 14 14 14 16 17 17 15 15 14 14 12 11 11 10
11 11 12 11 4 8 22 27 23 17 19 26 29 26 25 22 20 23 21 16 17 18 15 12 14 17 18 16 19 25 28 28 27 25 24 24 23 22 22 22 23 24 24 23 21 21 20 21 21 23 24 25 26 27 29 30 31 33 33 32 31 28 25 23 22 21 20 19 17 15 14 13 14 14 14 16 17 17 16 15 15 13 12 11 11 10
13 12 10 10 3 8 15 21 21 17 16 22 28 27 21 16 16 18 17 16 17 19 17 12 11 16 18 16 19 26 28 28 27 26 24 23 21 20 19 19 19 19 20 20 20 21 21 21 21 23 24 25 25 27 28 30 33 35 35 35 34 31 27 25 24 23 21 20 18 16 15 14 14 14 15 16 17 17 16 15 15 13 12 11 11 10
13 9 8 9 5 7 14 18 19 18 18 21 27 26 18 13 13 16 16 15 15 16 18 15 12 14 17 17 21 27 28 28 28 26 24 22 20 19 18 17 16 16 17 18 20 22 22 21 21 21 21 22 24 26 28 29 33 36 37 37 36 34 30 28 27 24 22 20 19 17 15 14 15 15 15 17 18 18 17 16 15 14 12 11 11 11
10 7 7 7 5 7 12 18 21 19 15 15 20 22 17 13 11 13 15 14 11 12 14 15 13 13 16 18 21 25 27 27 27 26 24 22 20 19 17 15 14 14 15 16 18 19 19 19 19 18 18 18 19 23 27 29 31 35 38 38 37 36 33 31 29 26 23 21 19 17 16 16 16 15 16 18 19 18 17 16 15 14 13 12 12 12
4 7 7 4 6 7 11 19 21 15 8 9 15 19 18 15 11 10 13 13 11 10 9 12 14 15 18 21 21 23 25 24 23 23 22 21 19 17 16 15 14 14 15 15 15 15 15 16 17 17 16 14 13 17 24 28 29 33 37 39 39 37 35 33 31 28 24 22 19 18 17 17 17 16 17 18 20 19 18 17 16 15 13 13 13 14
4 5 5 2 6 7 12 19 16 7 6 9 13 16 17 16 13 11 11 12 13 12 9 12 15 16 19 21 20 20 20 19 18 19 19 18 16 14 13 12 13 15 16 16 15 15 16 16 17 17 16 14 12 14 20 26 29 31 36 40 40 38 36 34 31 28 26 23 20 19 18 17 17 18 18 19 21 20 19 18 16 15 14 14 14 14
5 5 4 2 7 6 8 11 9 6 10 12 11 12 14 13 12 12 13 12 14 13 12 13 15 16 19 21 22 22 22 20 19 17 17 16 13 12 12 11 10 11 14 15 14 14 14 14 15 15 14 14 15 15 18 23 28 31 34 37 38 37 35 34 31 28 26 24 21 20 19 18 18 18 19 20 21 21 19 18 17 15 14 14 15 15
6 8 5 2 7 6 6 9 11 11 13 13 12 10 10 11 12 13 13 13 15 15 14 14 15 18 21 21 22 25 25 23 21 19 18 17 14 12 11 10 9 9 10 12 12 12 12 11 12 13 14 16 18 18 19 21 26 32 34 34 35 36 36 35 32 29 27 24 22 21 20 18 18 19 19 20 22 21 19 18 17 15 14 15 15 15
5 6 5 2 6 8 8 9 10 8 7 10 14 13 11 13 13 12 12 13 15 16 16 16 16 19 20 19 21 24 25 25 23 21 20 19 17 15 13 13 13 11 11 13 12 11 10 9 10 12 14 17 19 20 22 22 23 30 34 34 36 37 36 34 32 30 27 24 23 23 20 19 19 19 19 21 22 20 19 18 17 16 15 15 17 17
4 4 5 4 8 8 6 5 4 3 6 12 14 13 13 14 14 13 11 12 16 18 19 19 17 18 19 19 20 22 24 24 23 21 20 18 16 15 14 14 15 14 14 14 12 10 9 8 9 10 12 14 15 18 22 22 21 24 30 35 38 38 35 32 31 29 26 24 23 22 19 19 19 17 18 21 22 20 19 19 18 17 16 17 18 18
4 5 5 4 7 8 5 4 3 3 8 12 12 13 14 13 14 14 10 10 17 20 19 20 19 18 20 21 21 22 23 22 20 19 18 15 12 11 11 12 14 14 13 12 10 10 10 9 10 11 12 13 14 15 18 20 20 20 25 31 32 31 31 31 30 28 25 23 22 21 20 20 18 16 18 22 22 21 20 19 19 18 17 18 18 18
4 4 4 4 3 6 4 3 3 5 9 12 11 12 14 13 13 13 10 12 18 19 17 19 19 19 21 22 22 23 22 19 17 17 17 15 13 12 11 11 13 13 12 10 10 10 10 9 9 10 12 13 15 16 17 19 21 20 22 27 29 30 30 30 29 28 26 24 24 24 23 22 19 17 18 21 23 23 21 20 20 19 18 18 18 18
7 6 4 5 3 1 2 3 4 5 9 11 9 9 11 10 9 11 11 13 17 17 16 18 18 17 19 20 20 20 19 17 16 16 16 17 17 15 13 12 13 14 14 13 12 10 9 8 9 10 11 13 15 17 18 20 23 22 21 24 29 31 30 28 28 29 29 28 27 27 24 22 18 16 17 21 24 23 22 21 20 20 19 19 19 19
9 8 8 9 7 3 1 3 4 4 9 12 10 9 9 8 6 8 9 10 13 14 14 16 16 15 16 18 18 18 18 18 17 17 17 18 19 17 15 14 14 14 15 14 12 9 9 9 9 10 12 13 14 16 18 20 23 24 22 22 25 28 27 27 28 28 27 28 28 27 23 20 16 15 17 21 24 24 23 22 21 20 20 20 20 20
9 9 10 12 11 7 5 4 3 5 10 12 10 9 9 7 5 5 6 6 7 8 9 10 11 12 13 15 16 16 17 18 18 18 18 19 19 18 17 16 16 16 16 14 11 10 10 11 11 11 12 12 12 14 16 19 22 24 23 22 24 28 28 27 27 26 27 29 28 25 22 18 15 15 17 21 24 25 24 23 22 21 21 20 21 21
9 8 8 10 11 9 7 5 5 8 11 12 11 9 8 8 6 4 4 3 4 5 6 7 8 9 11 13 14 14 14 14 15 17 17 18 18 19 18 18 17 16 15 14 13 13 13 12 12 12 12 12 12 12 15 18 21 23 23 22 24 28 29 29 27 27 29 29 26 23 21 17 15 16 19 22 25 26 24 23 22 21 21 21 22 22
7 7 7 8 10 9 7 6 6 8 11 12 11 9 7 6 5 4 3 3 3 4 5 6 7 8 9 9 11 12 13 12 13 14 15 15 17 17 17 17 17 16 15 16 16 16 16 15 14 14 13 13 13 13 15 18 19 21 23 24 24 26 27 29 28 26 27 26 23 22 20 17 17 19 20 22 25 26 25 24 23 22 22 22 22 22
8 7 6 7 10 9 9 9 9 10 11 10 10 8 7 5 5 4 3 4 4 5 6 7 7 7 8 7 8 10 12 14 14 13 14 15 16 16 16 16 16 16 17 18 17 17 16 16 15 15 15 15 16 16 17 19 20 21 22 23 23 24 25 26 24 25 25 24 24 24 23 20 20 21 21 23 26 27 26 25 24 23 24 24 23 22
9 8 6 8 9 9 10 11 11 11 11 11 10 9 8 8 7 6 6 6 7 8 9 9 9 9 9 8 7 8 10 12 14 14 15 15 16 16 17 17 17 18 18 18 17 17 17 17 17 17 17 17 18 18 19 21 22 22 23 23 24 25 26 26 24 25 25 24 24 26 25 22 20 19 21 23 26 28 27 25 24 24 25 25 23 22
10 10 9 9 9 9 10 12 13 13 12 13 12 11 11 10 9 8 9 9 10 11 12 13 13 13 12 11 9 8 9 10 12 13 15 16 16 17 18 18 18 18 18 17 18 18 18 18 18 18 19 19 20 21 21 22 22 23 25 27 27 27 27 26 25 24 25 26 27 27 25 21 18 18 20 24 27 29 28 26 24 25 26 26 24 23
10 11 11 10 10 10 10 12 13 12 12 12 12 12 12 11 10 10 11 12 13 14 15 16 17 16 15 14 12 11 10 9 10 12 13 15 16 17 18 18 19 19 19 19 20 20 20 20 20 20 20 20 21 22 22 23 23 24 26 29 30 29 28 27 25 26 27 28 29 28 25 21 19 19 22 25 29 30 28 26 26 27 28 27 25 25
10 11 11 11 11 10 10 11 12 11 10 10 10 10 11 11 12 13 14 15 16 17 17 18 19 18 17 16 14 13 12 11 10 10 11 12 14 15 16 16 17 18 19 20 20 21 21 21 21 21 21 22 22 23 23 23 23 23 26 29 30 30 30 28 28 29 29 29 29 28 24 20 17 18 22 26 30 30 28 26 27 30 30 27 26 25
Wind_Direction
198 200 203 205 204 202 201 202 202 201 203 210 213 214 214 211 211 214 211 206 205 214 222 225 229 229 227 225 220 216 214 210 212 217 227 239 242 242 237 228 229 232 231 230 225 218 212 211 211 211 210 206 205 206 204 204 208 215 219 219 216 212 211 213 218 221 217 212 211 208 204 200 197 194 191 188 189 192 199 208 213 224 243 264 279 290
199 205 209 209 206 204 203 204 205 200 191 200 206 205 210 214 212 211 213 211 210 219 225 225 227 227 226 227 224 221 219 219 225 229 233 238 239 239 235 229 227 228 229 230 225 219 213 209 208 210 210 207 206 205 203 205 210 217 220 215 211 210 212 216 219 219 213 208 206 204 202 199 196 193 191 189 190 194 205 211 214 232 259 274 279 288
203 210 212 210 208 205 204 207 207 205 196 192 197 196 200 209 210 210 215 215 215 223 227 224 222 222 223 227 227 222 221 222 224 226 230 234 235 234 231 227 226 226 229 231 227 221 213 207 207 207 206 205 204 202 205 209 212 216 217 213 208 208 213 217 219 217 209 205 206 203 198 195 195 193 194 194 193 199 208 208 216 244 263 267 268 277
205 214 215 211 208 206 205 208 211 210 205 196 195 197 195 198 203 206 210 214 218 224 228 224 218 218 219 222 221 216 215 215 215 221 227 228 229 232 233 231 229 230 234 235 228 220 212 206 204 202 201 203 203 202 204 209 211 212 213 212 210 211 214 216 217 216 209 206 207 205 197 193 195 196 199 200 200 204 207 208 228 252 257 259 262 265
205 214 219 214 210 206 206 209 212 214 212 207 205 203 195 188 192 199 203 212 216 221 229 223 206 208 212 213 215 212 212 213 213 221 225 222 221 225 228 228 228 230 234 237 230 218 209 206 204 202 203 205 204 204 204 206 208 209 209 208 210 214 217 217 216 215 212 210 210 207 202 201 204 204 202 200 204 209 208 215 240 254 255 256 258 258
206 199 215 215 212 208 207 209 211 213 215 215 215 211 195 180 179 189 200 211 210 211 221 218 194 195 209 209 213 213 212 212 213 219 222 219 217 217 218 219 220 223 224 228 229 220 211 209 209 208 208 209 208 206 203 203 206 207 206 206 211 216 218 217 214 213 213 213 210 206 206 213 218 213 204 200 205 212 216 228 245 251 252 253 255 258
209 200 194 210 212 210 208 211 211 212 216 219 220 214 196 182 177 185 199 212 211 207 212 212 202 196 209 211 213 212 211 211 212 216 219 219 218 217 217 215 217 221 219 216 217 216 215 215 215 213 213 213 210 207 204 204 207 207 207 208 213 216 216 215 213 212 213 210 207 204 205 212 216 212 206 206 211 216 226 241 248 251 251 250 254 260
210 202 190 191 208 212 210 211 210 210 214 219 221 215 202 196 188 185 196 213 226 223 210 212 214 208 211 216 214 212 212 211 212 214 218 221 220 219 218 216 219 225 222 216 212 212 215 218 217 216 216 214 208 207 208 209 210 208 209 211 212 214 214 213 211 211 211 206 202 203 205 206 208 210 209 211 215 221 235 249 253 256 259 258 260 265
210 205 196 185 202 212 213 211 208 208 210 216 220 216 210 208 206 204 207 220 247 237 202 207 211 206 219 221 216 213 213 211 212 215 219 223 223 221 220 219 222 224 220 218 216 215 216 215 215 216 215 212 206 207 211 214 213 210 210 211 211 212 213 211 209 208 207 203 200 203 206 207 210 212 210 211 216 225 243 258 262 265 271 271 271 273
211 209 202 194 203 211 216 214 209 208 207 205 210 214 213 214 219 223 227 239 252 245 217 211 205 199 223 222 216 210 209 212 216 218 221 225 226 225 223 222 222 222 216 214 215 216 216 214 214 215 213 208 204 207 211 214 212 211 211 211 213 213 212 210 208 206 204 202 202 205 208 211 214 214 210 212 218 227 246 264 268 271 274 278 279 280
202 206 206 208 211 211 216 217 213 209 207 204 205 206 210 213 213 223 240 243 243 242 241 229 209 204 220 222 219 217 216 220 222 220 221 225 228 228 226 224 224 222 214 210 210 211 211 212 213 214 211 206 205 208 209 211 210 211 213 213 215 215 213 211 209 206 203 202 204 207 211 215 215 213 213 218 223 230 247 262 268 274 276 279 282 282
194 190 204 212 215 211 211 215 213 211 206 206 208 205 206 208 207 224 249 228 214 239 244 240 218 209 217 224 225 228 230 231 229 225 226 229 230 230 228 226 226 222 214 208 209 210 208 209 212 213 210 207 207 208 209 210 210 212 215 215 215 215 213 211 208 205 203 203 205 210 215 218 215 214 219 225 228 232 246 261 271 278 279 280 281 282
198 191 200 209 216 212 207 208 207 206 205 204 206 205 201 187 194 220 235 199 224 239 241 238 219 212 226 234 237 241 238 235 233 232 233 234 233 231 228 227 226 221 214 210 211 212 210 209 213 214 212 211 210 209 210 212 213 214 216 215 215 215 212 210 207 205 205 206 209 214 218 220 218 221 227 232 232 236 250 265 274 278 279 279 280 282
201 203 205 203 209 209 207 203 197 197 200 201 202 201 194 164 158 202 195 201 237 237 231 224 213 211 228 238 243 243 241 241 239 235 234 235 235 236 232 228 226 221 216 214 214 215 211 210 215 215 215 214 212 211 213 215 216 217 218 217 215 212 209 208 207 207 208 210 214 218 220 220 224 230 236 237 237 243 258 270 276 278 278 278 280 284
197 210 209 200 201 204 204 204 200 197 197 200 204 203 199 193 174 181 200 208 217 211 199 200 199 194 210 230 238 236 239 243 241 234 230 229 229 233 233 228 225 222 219 217 216 215 211 210 214 214 214 215 213 214 216 216 219 219 218 215 210 207 206 207 207 208 211 214 217 222 223 224 229 236 240 240 242 253 267 274 275 276 276 278 283 287
201 213 208 199 200 202 203 205 204 200 198 200 204 207 208 204 193 185 221 228 209 149 161 183 189 207 214 228 236 234 236 236 235 231 225 222 222 225 229 226 223 222 219 217 216 214 211 210 213 214 214 214 213 214 215 217 221 219 215 210 203 202 205 205 205 208 212 215 217 221 224 227 232 237 241 245 254 265 272 275 275 277 280 283 286 288
204 216 206 198 200 198 201 205 202 199 197 197 201 209 213 206 198 208 246 230 206 196 183 188 195 205 210 224 229 228 228 225 227 226 219 218 219 221 225 223 220 219 216 216 216 213 211 212 215 216 215 213 212 212 213 217 220 215 210 205 201 201 204 204 204 206 209 212 216 220 225 232 238 244 249 256 264 270 273 275 277 280 283 283 284 284
204 224 204 198 200 194 196 205 207 204 198 197 202 208 210 203 205 229 247 218 156 168 198 196 196 191 190 207 217 217 217 217 219 217 212 212 214 216 218 217 216 215 214 215 215 213 214 215 217 216 212 210 210 210 213 216 215 208 205 204 204 205 207 207 206 206 208 211 216 223 230 239 246 250 256 262 268 271 274 276 278 278 279 279 280 281
203 242 210 201 201 190 188 201 208 206 203 206 210 208 201 191 201 218 229 217 181 193 230 207 206 200 194 198 208 210 210 209 209 207 206 207 208 210 211 210 212 213 213 214 214 214 215 215 217 215 209 207 209 209 212 214 210 205 205 205 207 208 208 209 209 209 211 214 219 226 233 239 244 250 259 266 270 273 275 277 277 278 278 278 279 281
191 240 222 197 196 189 189 198 203 203 204 211 217 211 205 199 201 210 218 232 209 173 194 213 246 221 205 202 207 208 206 204 201 199 201 204 205 206 207 208 210 212 214 215 214 214 214 214 215 213 208 208 210 210 211 212 207 204 206 209 211 210 208 207 209 211 214 216 220 225 229 232 239 251 263 270 272 274 276 278 278 278 277 277 279 280
191 223 241 186 188 195 200 201 202 200 201 206 209 203 201 200 200 209 220 232 236 229 154 171 301 232 208 202 205 206 202 198 195 194 199 206 207 206 207 210 211 212 215 215 214 213 212 213 212 209 208 210 211 212 212 210 206 205 208 212 214 212 208 208 209 211 212 214 217 220 222 228 242 257 270 276 278 277 277 278 279 278 278 277 278 277
197 214 270 201 189 200 206 203 203 203 202 206 207 202 200 198 194 196 216 225 230 245 221 175 200 221 209 204 204 201 198 196 194 198 206 209 208 208 211 215 214 215 218 217 215 213 212 212 210 207 208 212 213 213 211 209 207 206 209 213 213 210 208 208 209 209 210 213 216 217 221 233 250 266 276 281 283 281 279 280 280 279 277 275 273 272
201 223 269 252 206 207 210 207 205 206 206 209 212 214 209 200 197 197 202 214 222 240 249 210 202 208 203 202 201 199 202 206 204 204 208 210 212 214 216 217 216 217 220 220 217 215 213 213 212 211 212 214 215 214 211 209 208 208 210 212 209 207 207 209 209 210 213 215 216 218 227 242 258 269 278 281 284 284 280 278 277 274 271 268 267 267
213 233 252 273 260 212 210 212 212 211 211 210 213 217 214 206 205 207 212 215 215 222 221 193 209 202 193 192 193 195 202 206 203 202 205 211 216 218 219 219 217 216 218 220 219 218 217 217 216 216 215 216 216 215 213 210 209 210 210 208 207 207 209 211 212 214 215 216 217 223 235 251 261 268 274 277 281 281 276 272 270 267 264 262 261 261
208 226 237 262 318 181 194 206 207 207 210 210 210 212 212 212 210 211 218 223 216 211 206 195 193 192 188 190 191 190 196 199 198 199 203 210 216 219 221 218 215 216 217 218 219 219 218 219 220 218 217 217 217 215 215 212 211 210 209 207 209 210 211 212 213 214 215 216 221 231 244 255 260 266 271 274 275 272 267 264 263 259 256 255 255 254
207 224 233 235 217 173 179 192 193 195 202 207 210 210 208 207 209 212 217 220 217 208 205 203 195 183 187 195 195 192 195 197 197 198 202 210 216 222 226 221 216 216 216 216 218 219 219 221 220 218 217 219 218 217 217 215 212 211 208 209 213 215 213 213 212 213 215 217 226 238 247 252 258 266 269 271 269 264 259 256 254 251 250 251 249 248
217 232 242 258 255 210 194 192 196 198 198 202 208 211 208 209 218 222 215 214 220 217 210 213 208 189 185 191 194 193 194 197 199 201 205 209 212 216 224 225 221 218 215 214 217 219 221 223 221 218 218 220 221 220 219 216 214 212 211 212 216 218 215 214 214 214 216 220 229 237 243 248 258 266 267 266 261 257 253 248 245 244 246 246 244 245
249 247 242 265 276 216 199 193 191 196 198 200 204 206 207 211 221 224 215 210 215 216 216 216 213 201 189 188 191 191 191 193 198 202 205 208 210 213 219 222 220 215 210 210 212 216 221 223 222 221 220 221 223 223 221 219 215 214 215 216 219 220 217 216 216 217 217 220 226 231 238 248 259 264 265 262 255 250 246 242 239 239 240 241 243 247
253 263 248 267 302 197 198 200 193 189 195 201 203 201 203 209 214 218 219 217 212 213 218 215 212 211 204 198 199 194 185 183 187 194 203 208 212 216 219 221 220 213 207 205 207 210 216 220 221 221 222 223 225 225 223 221 218 218 218 219 221 221 219 218 218 217 218 220 225 230 239 250 258 263 264 258 250 244 239 235 235 236 236 239 243 250
235 257 251 265 300 160 186 200 201 191 186 195 201 201 202 207 210 213 220 226 222 223 226 218 217 219 210 204 204 194 183 181 185 191 201 208 212 215 217 220 220 216 213 210 209 211 216 219 220 220 221 224 227 228 226 222 221 221 221 221 224 224 221 220 219 217 218 222 226 233 242 252 260 263 261 253 244 237 233 231 233 235 235 238 244 250
225 243 244 251 243 136 166 188 194 190 181 185 194 198 198 196 199 205 211 215 219 225 228 225 225 220 208 200 195 186 181 184 187 192 200 207 211 213 214 216 217 218 218 218 218 219 219 221 222 220 220 222 226 230 230 225 223 223 223 224 226 227 224 222 221 220 221 225 231 237 244 253 262 264 258 248 238 232 229 229 232 234 234 238 244 249
218 239 255 250 224 129 150 171 175 176 177 176 182 189 190 180 181 192 201 203 208 217 219 217 213 203 194 191 191 187 183 185 189 195 202 208 211 214 214 215 215 216 219 221 223 224 226 228 228 226 224 223 224 226 229 228 224 222 223 224 226 227 225 225 224 224 226 230 234 237 242 254 263 264 257 245 235 230 228 227 229 232 234 237 242 245
217 244 274 253 209 119 136 165 167 163 168 172 177 183 186 183 178 185 192 195 199 204 206 206 206 196 183 180 184 186 186 189 194 199 204 209 212 215 217 220 221 220 220 223 226 228 232 235 236 235 233 231 229 226 226 227 225 222 222 224 226 226 226 227 227 230 233 235 235 236 242 255 264 265 256 242 232 228 226 225 228 230 233 236 239 241
239 253 279 250 179 117 127 158 164 162 165 176 180 186 195 202 197 186 185 189 195 196 191 191 198 196 185 180 182 186 187 190 195 199 205 208 210 212 215 218 221 223 223 224 225 228 233 236 238 240 238 238 238 231 226 225 224 221 220 222 226 227 227 228 230 233 236 234 234 236 243 254 262 264 257 242 231 227 225 225 227 229 232 235 236 237
262 257 284 223 161 120 127 151 162 175 174 169 180 191 201 210 209 193 184 186 193 196 186 180 188 191 187 186 191 193 190 189 192 198 206 210 210 213 216 215 217 222 224 223 222 225 230 235 238 240 240 238 236 230 225 224 224 221 219 221 226 228 227 228 230 234 236 234 235 237 242 251 259 261 256 243 231 226 224 225 228 229 231 234 235 234
253 275 303 137 143 126 124 144 157 154 140 143 165 188 196 202 202 193 185 181 188 196 190 182 185 189 188 190 193 192 189 190 193 196 204 210 214 217 218 220 228 232 229 228 230 232 234 237 239 240 242 240 234 230 227 224 225 224 221 222 225 225 225 226 228 231 235 237 239 238 238 246 257 260 255 242 229 224 224 226 229 230 230 233 234 233
262 266 270 102 120 125 110 115 126 129 130 136 145 162 183 188 185 188 185 174 177 186 185 179 181 186 188 190 192 191 190 193 198 200 204 208 210 213 212 212 224 231 219 217 224 228 227 228 229 231 234 233 231 230 230 229 227 226 223 221 222 224 224 224 224 226 231 237 239 235 235 245 257 258 252 238 227 223 224 227 230 230 229 231 231 231
299 258 232 117 98 114 112 109 121 129 138 144 141 145 167 175 177 189 189 172 169 174 176 175 177 183 187 189 193 193 193 198 202 202 205 208 206 208 208 204 208 214 203 197 206 216 221 227 231 232 234 234 232 230 230 231 230 227 221 217 221 225 225 221 221 223 228 235 236 232 234 245 252 253 246 234 225 222 223 227 230 228 226 228 229 230
294 224 192 126 90 95 105 108 108 123 146 143 137 142 160 169 174 186 192 181 173 172 175 178 181 188 191 193 196 197 200 204 203 199 205 211 205 204 208 205 206 212 207 201 204 211 218 229 238 243 248 248 244 238 234 232 232 227 219 216 222 227 223 219 220 223 226 233 235 232 234 240 245 249 244 232 224 221 223 226 228 226 223 225 229 232
250 193 174 127 80 71 84 108 95 113 137 135 131 141 153 159 167 177 186 184 177 175 176 178 181 189 194 198 202 203 204 206 204 202 207 210 205 204 210 210 211 218 220 217 216 216 221 232 241 250 258 259 255 251 240 232 233 228 217 216 223 227 222 217 217 219 224 231 234 233 234 235 241 249 244 232 224 221 222 224 226 225 224 226 230 233
220 172 168 174 100 61 66 98 98 120 139 137 132 142 151 155 167 178 183 179 179 180 181 180 182 185 190 196 203 205 205 206 209 210 211 212 214 218 222 222 218 216 216 217 221 223 227 234 241 248 254 254 252 251 242 232 231 230 222 218 221 226 225 216 212 216 222 225 229 232 231 230 235 243 239 230 225 222 222 223 224 225 224 226 229 230
175 163 173 198 201 31 53 98 102 124 149 151 147 152 160 166 179 183 176 174 182 190 192 193 195 195 197 203 207 206 207 210 213 215 216 219 226 231 235 237 232 226 225 230 236 235 231 234 240 243 248 249 247 247 243 234 229 231 231 223 218 220 218 211 214 224 227 225 229 232 227 224 229 237 236 230 225 223 223 223 223 224 225 225 226 226
166 163 176 190 197 215 197 132 115 138 161 163 165 172 175 178 186 182 173 175 185 193 199 203 204 205 208 214 216 213 212 214 215 214 213 218 224 229 235 239 242 246 250 251 250 243 237 245 251 250 250 250 246 246 247 241 232 232 235 226 211 205 204 211 224 231 227 227 231 229 223 223 229 236 237 231 226 224 224 224 223 224 227 226 223 222
173 168 175 183 188 194 200 188 155 154 166 171 172 177 184 185 180 177 180 183 188 195 206 212 215 218 219 218 217 214 212 213 215 213 213 216 220 225 231 234 238 245 247 244 244 247 251 257 257 252 249 247 244 244 247 244 235 232 234 227 209 200 204 217 224 220 219 229 232 223 217 222 231 237 239 233 226 224 225 224 223 224 226 225 221 221
180 177 175 182 188 191 196 194 166 157 170 177 173 171 185 193 195 202 211 217 219 222 229 236 242 245 241 234 228 220 214 214 215 215 217 219 221 224 228 229 232 235 235 236 243 251 254 250 244 242 241 240 241 242 241 241 236 230 231 231 218 208 208 211 211 214 226 234 230 219 219 226 234 241 242 235 228 225 224 226 226 225 224 221 218 221
179 173 168 180 188 187 187 189 181 173 176 178 174 173 183 192 200 220 239 252 262 256 249 252 255 257 256 250 241 230 222 216 215 217 220 220 220 223 223 223 224 226 230 237 244 247 247 243 239 241 243 244 247 245 240 241 236 227 228 231 223 213 206 201 205 223 234 229 220 221 228 234 239 242 241 235 228 224 223 225 226 224 221 217 217 221
166 169 171 177 180 179 179 181 186 188 186 186 185 187 195 206 215 226 236 248 258 257 253 253 254 259 263 257 245 233 223 214 210 212 216 220 223 224 221 220 224 228 232 239 243 243 243 244 244 246 248 249 250 245 239 239 233 224 224 225 218 208 199 196 211 232 232 221 222 228 231 232 236 240 240 236 229 224 222 223 224 220 215 213 216 221
166 171 172 172 174 180 184 186 189 194 196 199 202 205 212 221 227 234 239 244 249 253 256 255 255 260 264 261 253 241 226 217 213 210 211 215 219 220 219 220 223 228 232 236 239 241 243 245 245 247 247 247 247 241 238 238 233 223 220 218 211 201 194 201 220 231 225 222 231 233 230 230 234 238 241 239 231 224 223 225 224 218 211 211 215 221
183 181 176 176 181 185 189 191 195 200 203 206 211 218 225 229 233 240 244 244 247 252 258 261 262 263 265 263 257 247 235 227 222 217 215 214 213 216 221 223 225 230 234 237 240 244 246 245 245 245 245 244 242 238 236 238 235 226 219 215 207 199 198 211 225 227 222 226 233 232 229 230 236 244 248 241 230 224 222 224 222 215 210 211 213 216
204 201 196 195 198 199 199 199 201 203 207 210 213 219 225 229 234 242 246 249 251 253 256 260 264 265 266 265 262 258 251 242 231 223 220 218 218 219 223 226 231 235 237 238 239 240 241 241 240 241 241 241 240 237 235 236 235 230 222 216 208 201 204 214 220 220 222 230 233 229 227 229 234 246 251 241 229 223 222 221 217 212 210 212 213 215
204 205 205 209 216 220 216 210 210 210 209 208 210 215 222 226 232 240 246 249 253 255 256 259 261 262 263 262 262 264 266 262 250 236 225 221 221 222 223 228 233 236 238 238 239 239 240 240 240 240 240 239 237 234 232 232 233 232 227 219 210 205 206 212 217 220 226 233 233 229 229 229 231 241 246 237 227 222 221 221 216 212 212 213 214 216
Height
3050 3051 3049 3047 3048 3051 3055 3059 3064 3068 3071 3074 3076 3078 3082 3084 3087 3090 3094 3097 3100 3102 3102 3103 3105 3107 3109 3111 3113 3116 3118 3119 3120 3122 3123 3125 3127 3129 3131 3132 3133 3134 3135 3136 3136 3137 3138 3139 3140 3142 3143 3144 3144 3145 3146 3146 3147 3148 3149 3150 3151 3152 3154 3155 3156 3157 3157 3158 3159 3159 3160 3161 3162 3164 3165 3166 3166 3167 3167 3168 3168 3168 3168 3168 3168 3168
3048 3045 3041 3044 3049 3055 3059 3062 3065 3068 3071 3073 3076 3078 3081 3083 3086 3090 3093 3096 3099 3100 3100 3102 3103 3105 3107 3109 3112 3114 3115 3117 3118 3120 3122 3123 3125 3127 3128 3130 3131 3132 3133 3133 3134 3135 3136 3137 3139 3140 3141 3142 3143 3144 3144 3145 3146 3147 3148 3149 3150 3151 3153 3154 3155 3156 3156 3157 3157 3158 3159 3161 3162 3163 3164 3165 3166 3167 3167 3167 3168 3168 3168 3168 3168 3168
3042 3038 3038 3045 3051 3055 3059 3062 3064 3068 3071 3072 3074 3077 3079 3082 3086 3090 3093 3095 3098 3098 3098 3100 3102 3104 3107 3108 3109 3111 3113 3115 3117 3118 3120 3122 3123 3124 3126 3128 3129 3130 3131 3131 3131 3132 3134 3135 3137 3138 3140 3141 3142 3142 3143 3144 3145 3146 3146 3147 3149 3150 3151 3153 3154 3154 3155 3155 3156 3156 3158 3160 3162 3163 3164 3165 3166 3166 3167 3167 3167 3167 3167 3168 3168 3168
3036 3034 3039 3046 3050 3054 3058 3060 3063 3067 3069 3070 3072 3075 3077 3081 3085 3088 3091 3094 3096 3096 3096 3098 3100 3103 3104 3105 3106 3109 3111 3113 3114 3116 3118 3120 3121 3122 3124 3126 3128 3128 3129 3129 3130 3131 3132 3133 3135 3137 3138 3139 3140 3141 3141 3142 3143 3144 3145 3146 3147 3149 3150 3152 3153 3153 3153 3154 3155 3156 3157 3159 3161 3162 3163 3164 3165 3166 3166 3166 3167 3167 3167 3168 3168 3168
3034 3036 3040 3045 3049 3053 3056 3058 3061 3064 3066 3068 3071 3073 3077 3081 3084 3087 3091 3093 3094 3095 3095 3096 3099 3100 3100 3101 3104 3106 3109 3110 3112 3113 3115 3117 3119 3121 3122 3124 3125 3126 3127 3127 3128 3129 3130 3132 3133 3135 3136 3137 3139 3139 3140 3141 3142 3143 3144 3145 3147 3148 3149 3151 3151 3152 3153 3153 3154 3156 3158 3159 3160 3161 3162 3163 3164 3165 3166 3166 3167 3167 3167 3167 3167 3168
3034 3038 3040 3044 3048 3051 3054 3056 3058 3061 3064 3067 3070 3073 3077 3081 3084 3087 3090 3091 3092 3092 3091 3092 3097 3099 3099 3100 3102 3104 3106 3107 3109 3111 3113 3115 3116 3118 3119 3120 3122 3123 3125 3126 3127 3128 3129 3130 3132 3133 3134 3136 3137 3138 3139 3140 3141 3142 3143 3144 3146 3148 3149 3150 3150 3151 3152 3153 3155 3157 3158 3159 3160 3161 3162 3163 3164 3165 3165 3166 3166 3166 3167 3167 3167 3167
3033 3038 3041 3043 3046 3049 3052 3054 3056 3060 3064 3066 3068 3073 3078 3081 3083 3085 3087 3089 3089 3088 3089 3091 3095 3097 3098 3098 3099 3101 3103 3105 3107 3109 3111 3113 3114 3115 3116 3117 3119 3121 3122 3124 3125 3126 3128 3129 3130 3131 3132 3134 3135 3136 3138 3139 3140 3141 3142 3144 3145 3147 3148 3149 3149 3150 3151 3153 3155 3156 3158 3159 3160 3161 3161 3162 3163 3164 3165 3165 3166 3166 3166 3166 3166 3166
3030 3037 3040 3041 3044 3048 3048 3049 3054 3059 3063 3065 3068 3074 3079 3080 3082 3084 3085 3087 3087 3087 3089 3091 3093 3094 3094 3094 3096 3099 3101 3102 3104 3106 3108 3109 3111 3111 3113 3115 3117 3119 3120 3121 3122 3123 3125 3127 3129 3130 3131 3132 3134 3136 3137 3138 3139 3140 3142 3143 3145 3146 3147 3148 3149 3150 3151 3153 3154 3156 3157 3158 3159 3159 3161 3162 3163 3163 3164 3165 3165 3165 3165 3165 3165 3165
3029 3035 3038 3039 3042 3043 3043 3046 3053 3059 3063 3066 3070 3075 3079 3080 3082 3083 3084 3086 3086 3088 3088 3089 3090 3091 3090 3091 3094 3097 3098 3099 3100 3103 3105 3106 3107 3109 3111 3113 3115 3117 3118 3119 3120 3122 3123 3125 3127 3128 3130 3132 3133 3135 3136 3137 3138 3140 3141 3143 3144 3145 3146 3147 3148 3149 3150 3152 3154 3155 3156 3157 3157 3158 3160 3161 3162 3163 3163 3164 3164 3164 3164 3164 3164 3164
3030 3033 3038 3040 3040 3040 3042 3048 3054 3058 3062 3067 3071 3075 3079 3080 3081 3082 3084 3085 3086 3086 3085 3085 3087 3088 3088 3088 3090 3092 3094 3095 3097 3100 3102 3103 3105 3107 3109 3111 3113 3115 3116 3117 3119 3120 3122 3124 3126 3128 3129 3131 3132 3134 3135 3136 3138 3139 3140 3142 3143 3144 3145 3146 3147 3148 3149 3151 3153 3154 3155 3156 3157 3158 3159 3160 3161 3162 3162 3163 3163 3163 3163 3163 3163 3163
3030 3034 3038 3038 3038 3040 3045 3050 3054 3058 3063 3067 3071 3075 3078 3079 3080 3082 3082 3083 3086 3083 3079 3081 3084 3085 3085 3084 3084 3086 3089 3092 3094 3096 3099 3100 3102 3104 3107 3109 3110 3112 3114 3115 3116 3118 3120 3122 3124 3126 3128 3129 3131 3132 3133 3135 3136 3138 3139 3141 3142 3143 3144 3145 3146 3147 3149 3150 3152 3153 3154 3155 3156 3157 3158 3159 3160 3161 3161 3161 3161 3162 3162 3162 3162 3162
3029 3032 3034 3035 3037 3041 3046 3049 3053 3057 3062 3066 3069 3073 3076 3077 3079 3080 3080 3083 3084 3077 3073 3077 3082 3084 3082 3079 3081 3084 3088 3090 3092 3093 3095 3096 3099 3101 3104 3106 3108 3110 3112 3113 3114 3115 3118 3120 3122 3124 3125 3127 3129 3130 3132 3134 3135 3137 3138 3139 3141 3142 3143 3144 3145 3146 3148 3150 3151 3152 3153 3154 3155 3156 3157 3158 3159 3160 3160 3160 3160 3160 3161 3161 3160 3160
3027 3028 3030 3033 3037 3040 3044 3047 3051 3056 3059 3063 3067 3071 3073 3075 3077 3078 3078 3080 3077 3071 3070 3076 3080 3081 3078 3077 3081 3083 3086 3087 3088 3091 3092 3094 3097 3099 3101 3104 3106 3107 3109 3111 3112 3113 3116 3118 3119 3121 3124 3126 3127 3129 3131 3132 3134 3135 3137 3138 3139 3141 3142 3143 3144 3145 3147 3149 3150 3151 3152 3154 3155 3156 3157 3157 3158 3158 3159 3159 3159 3159 3159 3159 3159 3159
3026 3028 3030 3032 3035 3038 3041 3043 3045 3048 3053 3057 3061 3064 3066 3068 3072 3074 3075 3074 3071 3068 3071 3075 3078 3077 3075 3076 3079 3080 3082 3084 3086 3089 3091 3093 3097 3098 3100 3102 3103 3105 3107 3109 3110 3111 3114 3116 3118 3120 3122 3124 3126 3128 3129 3131 3133 3134 3135 3137 3138 3139 3141 3142 3143 3144 3146 3148 3149 3150 3152 3153 3154 3155 3156 3156 3157 3157 3158 3158 3158 3158 3158 3157 3157 3157
3025 3026 3026 3028 3030 3033 3036 3039 3041 3045 3050 3055 3058 3062 3063 3062 3064 3067 3069 3069 3068 3068 3071 3074 3075 3073 3072 3074 3076 3077 3079 3082 3085 3088 3090 3093 3096 3097 3099 3100 3101 3103 3104 3106 3107 3109 3112 3114 3116 3119 3121 3123 3125 3126 3128 3130 3131 3133 3135 3136 3137 3138 3140 3141 3142 3144 3145 3147 3148 3150 3151 3152 3153 3154 3155 3155 3156 3156 3156 3156 3156 3156 3156 3156 3155 3155
3024 3023 3023 3026 3029 3031 3035 3038 3043 3048 3051 3055 3060 3061 3060 3058 3061 3064 3065 3066 3067 3068 3069 3071 3071 3069 3069 3073 3074 3075 3077 3080 3082 3084 3087 3091 3093 3094 3095 3097 3099 3100 3102 3103 3105 3107 3110 3113 3115 3117 3119 3121 3123 3125 3127 3129 3130 3132 3134 3135 3136 3138 3139 3140 3142 3143 3145 3146 3148 3149 3150 3151 3152 3153 3153 3154 3154 3154 3154 3154 3154 3154 3154 3153 3153 3153
3022 3022 3023 3027 3029 3031 3035 3039 3043 3046 3048 3052 3055 3054 3054 3058 3063 3064 3065 3065 3067 3067 3067 3067 3067 3067 3069 3071 3071 3072 3074 3076 3078 3081 3085 3088 3090 3091 3092 3095 3096 3098 3100 3101 3103 3105 3108 3111 3114 3116 3118 3120 3122 3124 3126 3128 3129 3131 3133 3134 3136 3137 3138 3139 3141 3142 3144 3145 3146 3147 3148 3149 3150 3151 3151 3152 3152 3152 3152 3152 3152 3152 3152 3152 3152 3152
3021 3022 3023 3026 3028 3031 3036 3039 3042 3045 3047 3049 3050 3050 3055 3062 3065 3064 3064 3065 3066 3067 3065 3064 3064 3065 3066 3066 3067 3069 3071 3073 3076 3079 3083 3085 3087 3088 3090 3092 3094 3096 3098 3099 3101 3104 3107 3109 3112 3114 3117 3119 3121 3123 3124 3126 3128 3130 3131 3133 3135 3136 3137 3139 3140 3141 3143 3144 3145 3146 3147 3148 3148 3149 3150 3150 3151 3151 3150 3150 3150 3150 3150 3150 3150 3150
3022 3023 3023 3025 3028 3031 3035 3039 3041 3044 3046 3048 3049 3052 3057 3060 3060 3061 3063 3063 3064 3066 3065 3063 3063 3063 3062 3062 3064 3066 3069 3071 3074 3077 3080 3082 3084 3085 3087 3089 3091 3093 3095 3097 3099 3102 3105 3107 3110 3112 3115 3117 3119 3121 3122 3124 3126 3128 3130 3132 3133 3135 3136 3137 3138 3140 3141 3142 3143 3144 3145 3146 3147 3148 3148 3148 3149 3149 3149 3148 3149 3149 3149 3149 3149 3148
3022 3023 3022 3024 3028 3031 3034 3035 3036 3038 3042 3046 3050 3053 3056 3057 3057 3058 3060 3060 3061 3063 3064 3064 3063 3061 3060 3061 3062 3064 3067 3070 3072 3075 3078 3080 3081 3082 3084 3086 3088 3091 3093 3095 3098 3101 3103 3106 3108 3111 3113 3115 3117 3119 3121 3123 3125 3127 3129 3130 3132 3133 3134 3135 3137 3138 3140 3141 3142 3143 3144 3145 3146 3146 3146 3147 3147 3147 3147 3147 3147 3147 3147 3147 3147 3146
3022 3023 3022 3023 3027 3029 3029 3028 3028 3032 3036 3041 3046 3048 3049 3052 3055 3057 3058 3058 3059 3061 3062 3063 3062 3060 3059 3061 3062 3063 3065 3068 3071 3074 3076 3077 3079 3081 3083 3085 3086 3089 3090 3093 3096 3099 3102 3104 3106 3109 3111 3113 3115 3117 3119 3121 3123 3125 3127 3129 3130 3131 3133 3134 3135 3137 3138 3140 3141 3142 3143 3143 3144 3144 3145 3145 3145 3145 3146 3146 3146 3146 3146 3146 3145 3145
3020 3022 3021 3022 3024 3024 3023 3024 3028 3032 3035 3039 3043 3044 3045 3048 3051 3054 3055 3056 3057 3058 3059 3060 3059 3057 3058 3060 3062 3063 3065 3068 3070 3073 3074 3075 3077 3079 3082 3083 3085 3087 3089 3091 3095 3098 3101 3102 3105 3107 3109 3111 3114 3115 3118 3120 3122 3124 3126 3127 3129 3130 3131 3132 3134 3135 3137 3138 3139 3140 3141 3142 3142 3143 3143 3144 3144 3144 3144 3144 3144 3144 3144 3144 3144 3143
3020 3021 3021 3021 3021 3021 3022 3026 3030 3033 3037 3042 3044 3045 3046 3048 3049 3051 3052 3054 3056 3057 3057 3057 3056 3055 3056 3059 3061 3063 3065 3068 3070 3071 3073 3074 3076 3078 3080 3082 3083 3086 3088 3091 3094 3097 3099 3101 3103 3105 3107 3110 3112 3114 3116 3118 3120 3122 3124 3126 3127 3128 3129 3130 3132 3134 3135 3136 3137 3138 3139 3140 3141 3141 3142 3142 3143 3143 3143 3143 3143 3143 3143 3143 3142 3142
3020 3021 3019 3019 3019 3021 3024 3028 3031 3034 3038 3041 3042 3044 3045 3046 3047 3049 3052 3054 3054 3055 3056 3057 3056 3054 3055 3057 3059 3061 3063 3066 3068 3070 3071 3073 3075 3077 3079 3080 3082 3084 3087 3089 3092 3094 3097 3099 3101 3103 3105 3108 3110 3112 3114 3117 3119 3121 3122 3124 3125 3126 3127 3129 3130 3132 3133 3134 3136 3137 3138 3139 3139 3140 3140 3141 3141 3142 3142 3142 3142 3142 3141 3141 3141 3141
3018 3018 3019 3019 3019 3021 3024 3027 3029 3031 3034 3037 3039 3041 3043 3044 3046 3048 3051 3052 3051 3051 3053 3054 3054 3053 3054 3056 3057 3058 3061 3064 3066 3068 3070 3071 3073 3075 3077 3078 3080 3083 3085 3087 3089 3092 3094 3097 3099 3101 3103 3106 3108 3110 3113 3115 3117 3119 3121 3122 3123 3125 3126 3127 3129 3130 3131 3133 3134 3136 3137 3137 3138 3138 3139 3139 3140 3140 3140 3140 3140 3140 3140 3140 3140 3140
3017 3017 3018 3019 3020 3020 3020 3020 3022 3024 3028 3032 3035 3037 3040 3042 3043 3046 3048 3049 3048 3049 3050 3051 3051 3051 3053 3054 3055 3056 3059 3061 3064 3066 3068 3070 3072 3074 3075 3077 3079 3081 3083 3085 3087 3090 3092 3095 3098 3100 3101 3104 3107 3109 3111 3113 3115 3117 3119 3121 3122 3123 3124 3126 3127 3129 3130 3132 3133 3135 3136 3136 3136 3137 3137 3138 3138 3139 3139 3139 3139 3139 3138 3139 3139 3139
3018 3018 3017 3017 3018 3017 3016 3017 3019 3021 3024 3027 3030 3033 3037 3039 3041 3044 3045 3045 3047 3048 3049 3049 3050 3050 3050 3051 3052 3055 3058 3060 3063 3065 3067 3068 3070 3072 3074 3075 3077 3080 3082 3085 3087 3089 3091 3094 3096 3098 3100 3103 3105 3107 3109 3112 3114 3116 3118 3119 3121 3122 3123 3125 3126 3128 3129 3131 3132 3133 3134 3134 3134 3135 3135 3136 3136 3137 3137 3137 3137 3137 3137 3137 3137 3137
3018 3016 3015 3016 3015 3014 3016 3019 3019 3021 3023 3025 3029 3032 3035 3037 3039 3041 3042 3043 3045 3047 3047 3048 3049 3049 3049 3050 3051 3053 3056 3058 3061 3063 3065 3067 3068 3070 3071 3073 3076 3079 3081 3084 3085 3087 3090 3092 3094 3097 3099 3101 3103 3105 3108 3110 3112 3114 3116 3118 3119 3121 3122 3124 3125 3126 3128 3129 3130 3131 3132 3132 3133 3133 3134 3134 3134 3135 3135 3135 3135 3136 3136 3136 3136 3136
3017 3015 3014 3015 3014 3013 3015 3018 3019 3021 3023 3026 3029 3032 3034 3036 3037 3039 3040 3041 3043 3045 3045 3046 3048 3048 3049 3050 3051 3052 3054 3056 3059 3062 3064 3065 3067 3069 3070 3072 3074 3077 3080 3082 3084 3086 3088 3091 3093 3095 3097 3099 3101 3103 3106 3108 3110 3112 3114 3116 3117 3119 3121 3122 3124 3125 3126 3128 3129 3130 3130 3130 3131 3131 3132 3132 3133 3133 3133 3134 3134 3134 3134 3134 3134 3134
3016 3015 3014 3014 3014 3012 3013 3016 3018 3021 3023 3025 3029 3031 3033 3035 3035 3037 3039 3040 3041 3043 3044 3045 3046 3047 3048 3049 3050 3052 3054 3056 3058 3061 3063 3064 3066 3068 3070 3072 3074 3076 3079 3081 3084 3086 3088 3089 3092 3094 3096 3098 3099 3101 3103 3106 3108 3110 3112 3114 3115 3117 3119 3121 3122 3123 3125 3126 3127 3128 3128 3129 3129 3130 3130 3130 3131 3131 3132 3132 3132 3132 3133 3133 3132 3133
3015 3015 3014 3014 3014 3013 3012 3014 3017 3020 3022 3024 3027 3030 3032 3032 3033 3035 3036 3038 3039 3041 3042 3044 3045 3045 3047 3048 3049 3051 3053 3055 3058 3060 3062 3064 3066 3068 3070 3071 3073 3075 3078 3080 3083 3084 3086 3088 3090 3092 3094 3096 3097 3099 3101 3103 3106 3108 3110 3112 3114 3116 3118 3119 3120 3122 3123 3124 3125 3126 3127 3127 3128 3128 3128 3129 3129 3130 3130 3130 3130 3131 3131 3131 3131 3131
3015 3014 3014 3014 3013 3012 3012 3013 3016 3019 3021 3023 3025 3027 3029 3030 3031 3033 3035 3037 3038 3039 3041 3043 3043 3044 3046 3047 3048 3050 3053 3055 3058 3059 3061 3063 3065 3067 3069 3071 3073 3075 3077 3079 3081 3083 3085 3087 3088 3090 3092 3094 3095 3097 3099 3101 3103 3105 3107 3109 3112 3114 3115 3117 3118 3120 3121 3122 3123 3124 3125 3125 3126 3126 3126 3127 3127 3128 3128 3128 3128 3129 3129 3129 3129 3130
3014 3014 3013 3013 3012 3012 3012 3013 3015 3018 3021 3022 3023 3025 3027 3028 3030 3032 3034 3035 3037 3038 3039 3041 3043 3044 3045 3047 3048 3050 3053 3055 3057 3059 3061 3063 3065 3067 3069 3071 3073 3075 3077 3078 3080 3082 3084 3086 3087 3089 3090 3092 3093 3095 3096 3098 3100 3102 3105 3107 3109 3111 3113 3114 3116 3117 3118 3120 3121 3121 3122 3123 3124 3124 3124 3124 3125 3126 3126 3126 3126 3127 3127 3127 3128 3128
3013 3013 3012 3011 3011 3011 3011 3013 3015 3018 3020 3020 3021 3023 3025 3027 3029 3031 3032 3034 3035 3037 3039 3040 3042 3044 3045 3047 3049 3051 3053 3055 3057 3058 3060 3062 3065 3067 3069 3071 3073 3074 3076 3078 3079 3081 3083 3084 3086 3087 3088 3090 3091 3092 3093 3095 3097 3099 3102 3104 3106 3108 3110 3112 3113 3114 3116 3117 3118 3119 3120 3121 3121 3122 3122 3122 3123 3124 3124 3124 3124 3125 3126 3126 3126 3127
3013 3013 3012 3011 3010 3010 3011 3012 3015 3018 3019 3019 3020 3023 3024 3026 3028 3030 3031 3033 3034 3036 3038 3039 3041 3043 3045 3047 3049 3051 3053 3055 3057 3058 3060 3062 3064 3067 3069 3070 3072 3073 3075 3077 3078 3080 3081 3082 3083 3084 3086 3087 3088 3089 3090 3092 3094 3096 3098 3100 3102 3105 3107 3109 3110 3111 3113 3114 3115 3117 3118 3118 3119 3119 3119 3120 3121 3121 3122 3122 3122 3123 3124 3124 3124 3125
3013 3013 3012 3011 3010 3010 3011 3012 3014 3017 3018 3019 3020 3022 3023 3026 3027 3029 3030 3032 3034 3036 3037 3039 3041 3043 3045 3047 3049 3051 3053 3054 3056 3058 3059 3061 3063 3066 3067 3069 3071 3072 3074 3075 3077 3078 3079 3080 3081 3082 3084 3085 3086 3087 3088 3089 3090 3092 3094 3096 3099 3101 3104 3105 3107 3109 3110 3111 3113 3114 3115 3116 3116 3117 3117 3117 3118 3119 3120 3120 3120 3121 3122 3122 3123 3124
3013 3013 3012 3011 3010 3010 3011 3012 3014 3016 3018 3019 3020 3021 3023 3025 3027 3028 3030 3031 3033 3035 3037 3038 3040 3042 3044 3046 3048 3050 3052 3054 3055 3057 3058 3060 3062 3064 3066 3068 3070 3071 3072 3073 3076 3077 3078 3078 3079 3080 3081 3082 3084 3085 3086 3087 3087 3088 3090 3093 3095 3097 3100 3102 3104 3106 3107 3108 3110 3111 3112 3113 3114 3114 3114 3115 3116 3117 3118 3118 3118 3119 3120 3120 3121 3122
3012 3012 3011 3011 3010 3011 3011 3012 3014 3017 3018 3019 3020 3021 3023 3025 3026 3028 3029 3031 3032 3034 3036 3038 3040 3042 3044 3046 3048 3049 3051 3053 3054 3055 3057 3058 3060 3062 3064 3066 3068 3069 3070 3071 3073 3074 3075 3076 3077 3078 3079 3080 3081 3082 3083 3084 3084 3085 3087 3090 3092 3094 3096 3099 3101 3103 3104 3106 3107 3108 3109 3111 3111 3111 3111 3112 3114 3115 3115 3116 3116 3117 3118 3118 3119 3120
3011 3011 3011 3010 3010 3011 3011 3013 3015 3016 3017 3018 3020 3021 3023 3024 3025 3027 3029 3030 3031 3033 3035 3037 3039 3041 3043 3045 3047 3049 3050 3051 3052 3054 3056 3058 3059 3061 3063 3064 3066 3067 3068 3069 3071 3072 3073 3074 3075 3076 3077 3078 3078 3079 3080 3081 3082 3083 3084 3087 3089 3091 3093 3096 3098 3100 3101 3103 3104 3106 3107 3108 3108 3108 3109 3110 3111 3112 3113 3114 3114 3114 3115 3116 3117 3119
3011 3011 3011 3011 3010 3011 3012 3013 3014 3015 3016 3018 3019 3020 3022 3023 3024 3026 3028 3029 3030 3032 3034 3036 3038 3040 3042 3044 3046 3047 3049 3051 3053 3055 3056 3057 3059 3060 3062 3063 3065 3066 3067 3068 3069 3070 3071 3073 3073 3074 3075 3076 3076 3077 3078 3078 3079 3080 3082 3085 3087 3089 3091 3094 3096 3097 3099 3100 3102 3103 3104 3105 3106 3106 3106 3107 3109 3110 3111 3111 3112 3112 3113 3115 3116 3117
3011 3011 3011 3011 3011 3012 3013 3014 3014 3014 3015 3017 3018 3020 3021 3022 3024 3025 3026 3028 3030 3031 3034 3035 3037 3039 3041 3043 3045 3047 3049 3051 3053 3055 3056 3057 3058 3059 3061 3062 3063 3064 3066 3067 3068 3069 3070 3071 3072 3073 3073 3074 3074 3075 3075 3076 3077 3078 3079 3081 3084 3086 3089 3091 3093 3094 3095 3097 3099 3100 3101 3102 3103 3103 3104 3105 3106 3107 3108 3109 3110 3110 3111 3113 3114 3116
3012 3012 3012 3012 3012 3013 3014 3015 3014 3014 3015 3016 3017 3019 3021 3022 3023 3025 3026 3028 3030 3031 3033 3035 3037 3039 3040 3042 3044 3046 3049 3050 3052 3053 3054 3056 3057 3058 3059 3060 3061 3062 3063 3065 3066 3067 3068 3069 3070 3071 3072 3072 3072 3073 3073 3073 3074 3076 3077 3078 3080 3083 3086 3088 3090 3091 3092 3094 3096 3097 3098 3099 3100 3101 3101 3102 3103 3104 3106 3107 3108 3108 3109 3111 3112 3114
3012 3012 3013 3014 3014 3015 3016 3016 3015 3015 3015 3016 3018 3019 3020 3022 3024 3025 3027 3029 3030 3031 3033 3035 3036 3038 3040 3041 3043 3045 3047 3048 3049 3051 3052 3054 3055 3057 3058 3059 3060 3061 3062 3063 3064 3065 3066 3067 3068 3069 3070 3070 3070 3071 3071 3071 3072 3074 3074 3076 3078 3080 3083 3085 3086 3088 3089 3091 3092 3093 3095 3096 3097 3098 3099 3100 3101 3102 3103 3105 3106 3106 3107 3109 3110 3112
3012 3012 3013 3015 3016 3017 3017 3016 3016 3016 3017 3017 3018 3019 3021 3022 3024 3025 3026 3028 3029 3031 3032 3033 3035 3037 3039 3040 3042 3043 3044 3045 3047 3048 3050 3051 3053 3055 3056 3057 3058 3059 3060 3061 3062 3062 3064 3065 3066 3067 3068 3068 3068 3068 3069 3069 3070 3071 3072 3074 3075 3077 3079 3081 3083 3085 3087 3088 3088 3090 3092 3093 3094 3096 3096 3097 3098 3099 3100 3102 3103 3104 3105 3106 3108 3110
3011 3012 3013 3014 3015 3016 3016 3016 3016 3017 3017 3018 3019 3021 3022 3023 3024 3025 3026 3027 3028 3029 3030 3032 3033 3035 3037 3038 3040 3041 3042 3044 3045 3046 3048 3050 3051 3052 3054 3055 3056 3057 3058 3059 3059 3060 3061 3062 3063 3064 3065 3066 3066 3066 3067 3067 3067 3069 3070 3072 3072 3074 3075 3077 3080 3083 3085 3085 3086 3088 3089 3090 3091 3093 3094 3094 3095 3097 3098 3100 3101 3102 3103 3104 3106 3108
3011 3012 3012 3013 3014 3015 3015 3016 3016 3017 3018 3019 3020 3021 3022 3023 3024 3025 3026 3026 3027 3028 3030 3031 3032 3034 3035 3036 3038 3039 3040 3041 3043 3044 3046 3047 3049 3050 3051 3052 3053 3054 3055 3056 3057 3058 3059 3060 3061 3062 3063 3063 3064 3064 3065 3065 3065 3066 3068 3069 3070 3071 3073 3075 3078 3080 3081 3082 3084 3085 3086 3087 3089 3090 3091 3092 3093 3094 3095 3097 3098 3099 3100 3102 3104 3106
3011 3012 3012 3013 3014 3014 3015 3015 3016 3017 3018 3019 3020 3021 3022 3023 3024 3025 3025 3026 3027 3028 3030 3031 3032 3033 3034 3035 3036 3037 3038 3039 3040 3042 3043 3045 3046 3048 3049 3050 3051 3052 3053 3054 3055 3055 3056 3057 3058 3059 3060 3061 3061 3062 3062 3062 3063 3064 3065 3066 3068 3069 3071 3073 3076 3077 3078 3079 3081 3082 3083 3084 3086 3087 3088 3089 3090 3091 3092 3094 3095 3096 3098 3100 3102 3104
3011 3011 3012 3013 3013 3014 3015 3015 3016 3017 3018 3019 3020 3021 3022 3023 3024 3024 3025 3026 3027 3028 3029 3030 3031 3032 3033 3034 3035 3036 3036 3037 3039 3040 3041 3042 3044 3045 3046 3048 3049 3050 3051 3052 3052 3053 3054 3054 3055 3056 3057 3058 3059 3059 3059 3060 3060 3061 3062 3064 3065 3067 3069 3071 3072 3074 3075 3077 3078 3079 3080 3081 3082 3084 3085 3086 3087 3088 3090 3091 3092 3094 3096 3098 3100 3103
3011 3011 3012 3012 3013 3014 3014 3015 3016 3017 3018 3019 3020 3021 3022 3023 3024 3024 3025 3026 3026 3027 3028 3029 3030 3031 3032 3033 3034 3035 3035 3036 3037 3038 3039 3040 3042 3043 3044 3045 3046 3047 3048 3049 3050 3050 3051 3052 3052 3053 3054 3055 3055 3056 3056 3057 3057 3058 3059 3061 3063 3065 3066 3068 3069 3071 3072 3073 3075 3076 3077 3078 3079 3081 3082 3083 3084 3085 3087 3088 3090 3092 3094 3096 3098 3100
3010 3011 3011 3012 3012 3013 3014 3015 3016 3017 3018 3019 3020 3021 3022 3022 3023 3023 3024 3025 3026 3026 3027 3027 3028 3029 3030 3031 3032 3033 3034 3035 3036 3037 3038 3039 3040 3041 3042 3043 3044 3045 3045 3046 3047 3047 3047 3048 3049 3050 3051 3051 3052 3053 3053 3053 3054 3055 3056 3058 3060 3062 3064 3065 3067 3068 3069 3070 3071 3073 3074 3075 3076 3077 3079 3080 3081 3082 3084 3085 3087 3088 3090 3092 3094 3097
3010 3010 3011 3011 3012 3013 3014 3015 3015 3016 3017 3018 3019 3020 3021 3022 3022 3022 3023 3023 3024 3025 3025 3026 3026 3027 3028 3029 3030 3031 3032 3033 3034 3035 3036 3037 3038 3039 3040 3040 3041 3042 3042 3043 3043 3044 3044 3045 3046 3046 3047 3048 3049 3049 3049 3050 3051 3052 3053 3055 3057 3059 3061 3063 3064 3066 3067 3068 3068 3070 3071 3072 3073 3074 3075 3076 3077 3079 3081 3083 3084 3086 3087 3089 3091 3094